Aeroporto :
LOGIN :

Iscrizione | Disclaimer

   EN    FR    IT 

 










Sommario :    VFR   VFR Marginale   IFR   IFR Intensivo   IFR Molto Intensivo
Visibilità : 
Base nubi : 
>= 8 km
>= 3000ft
5 / 8 km
1000 / 3000 ft
1500m / 5 km
500 / 1000 ft
800 / 1500m
200 / 500 ft
< 800m
< 200 ft
Simboli :   Temporali  Nebbia  Neve Forte  Precipitazioni Forti  Vento > 20 kt
SIGMETs :   Varie  Temporali  Ghiacco  Turbolenza  Onda orograficha  Ceneri Vulcaniche






- Altitudine del aeroporto : 302 ft


LFPM - Melun Villaroche

ULTIMO METAR :
  • 271800Z AUTO 14003KT 9999 SCT019 BKN068 BKN088 09/05 Q1014

METARs OBSOLETI :
  • 271730Z AUTO 15006KT 9999 FEW019/// BKN064/// BKN084/// ///TCU 09/05 Q1014
  • 271700Z AUTO 16006KT 9999 FEW017 BKN058 OVC100 09/04 Q1015
  • 271630Z AUTO 17006KT 9999 SCT019 OVC050 09/04 Q1015
  • 271600Z AUTO 17007KT 9999 BKN049 OVC076 10/04 Q1015
  • 271530Z AUTO 16007KT 9999 BKN021 OVC050 10/05 Q1015

Previsioni scadute.
ATIS : +33 1 64 14 28 44



MetMap, La meteo Aeronautica in un colpo d'occhio ! - Copyright ORBIFLY Dicembre 2007 - Disclaimer

ORBIFLY MET'MAP TEAM :

Programmazione e sviluppo : Alexandra Zaïnal
Concezione : Baudouin d'Aumeries
Supporto tecnico e logistico : Manuel Goepfert
Aiuto : Marc-Olivier Méhu
Aiuto per la traduzione : Arnaldo La Scala




FONTI E CREDITI :

   NOAA